2021,03,06,00,00,00,2871.1,,,,,,,,,,,,,,
2021,03,06,00,01,00,464.2,,,,,,,,,,,,,,
2021,03,06,00,02,00,165.1,,,,,,,,,,,,,,
2021,03,06,00,03,00,1446.5,,,,,,,,,,,,,,
2021,03,06,00,04,00,864.2,,,,,,,,,,,,,,
2021,03,06,00,05,00,356.8,,,,,,,,,,,,,,
2021,03,06,00,06,00,802.8,,,,,,,,,,,,,,
2021,03,06,00,07,00,956.5,,,,,,,,,,,,,,
2021,03,06,00,08,00,917.9,,,,,,,,,,,,,,
2021,03,06,00,09,00,2103.5,,,,,,,,,,,,,,
2021,03,06,00,10,00,2537.4,,,,,,,,,,,,,,
2021,03,06,00,11,00,1809.1,,,,,,,,,,,,,,
2021,03,06,00,12,00,2980.5,,,,,,,,,,,,,,
2021,03,06,00,13,00,-283.0,,,,,,,,,,,,,,
2021,03,06,00,14,00,1440.0,,,,,,,,,,,,,,
2021,03,06,00,15,00,1315.2,,,,,,,,,,,,,,
2021,03,06,00,16,00,640.8,,,,,,,,,,,,,,
2021,03,06,00,17,00,782.4,,,,,,,,,,,,,,
2021,03,06,00,18,00,1691.8,,,,,,,,,,,,,,
2021,03,06,00,19,00,1479.4,,,,,,,,,,,,,,
2021,03,06,00,20,00,1641.3,,,,,,,,,,,,,,
2021,03,06,00,21,00,1192.9,,,,,,,,,,,,,,
2021,03,06,00,22,00,734.1,,,,,,,,,,,,,,
2021,03,06,00,23,00,1149.8,,,,,,,,,,,,,,
2021,03,06,00,24,00,1329.9,,,,,,,,,,,,,,
2021,03,06,00,25,00,1436.8,,,,,,,,,,,,,,
2021,03,06,00,26,00,715.8,,,,,,,,,,,,,,
2021,03,06,00,27,00,137.8,,,,,,,,,,,,,,
2021,03,06,00,28,00,753.6,,,,,,,,,,,,,,
2021,03,06,00,29,00,1949.3,,,,,,,,,,,,,,
2021,03,06,00,30,00,3720.6,,,,,,,,,,,,,,
2021,03,06,00,31,00,3743.6,,,,,,,,,,,,,,
2021,03,06,00,32,00,3509.2,,,,,,,,,,,,,,
2021,03,06,00,33,00,3518.1,,,,,,,,,,,,,,
2021,03,06,00,34,00,2782.0,,,,,,,,,,,,,,
2021,03,06,00,35,00,1781.5,,,,,,,,,,,,,,
2021,03,06,00,36,00,2260.7,,,,,,,,,,,,,,
2021,03,06,00,37,00,2436.5,,,,,,,,,,,,,,
2021,03,06,00,38,00,2612.1,,,,,,,,,,,,,,
2021,03,06,00,39,00,2012.3,,,,,,,,,,,,,,
2021,03,06,00,40,00,2165.3,,,,,,,,,,,,,,
2021,03,06,00,41,00,2519.1,,,,,,,,,,,,,,
2021,03,06,00,42,00,2363.9,,,,,,,,,,,,,,
2021,03,06,00,43,00,2843.8,,,,,,,,,,,,,,
2021,03,06,00,44,00,4003.9,,,,,,,,,,,,,,
2021,03,06,00,45,00,3828.8,,,,,,,,,,,,,,
2021,03,06,00,46,00,4143.7,,,,,,,,,,,,,,
2021,03,06,00,47,00,4164.8,,,,,,,,,,,,,,
2021,03,06,00,48,00,4654.4,,,,,,,,,,,,,,
2021,03,06,00,49,00,4879.5,,,,,,,,,,,,,,
2021,03,06,00,50,00,4033.1,,,,,,,,,,,,,,
2021,03,06,00,51,00,3870.8,,,,,,,,,,,,,,
2021,03,06,00,52,00,3222.6,,,,,,,,,,,,,,
2021,03,06,00,53,00,3231.0,,,,,,,,,,,,,,
2021,03,06,00,54,00,3033.3,,,,,,,,,,,,,,
2021,03,06,00,55,00,2785.3,,,,,,,,,,,,,,
2021,03,06,00,56,00,2957.9,,,,,,,,,,,,,,
2021,03,06,00,57,00,3330.9,,,,,,,,,,,,,,
2021,03,06,00,58,00,3096.4,,,,,,,,,,,,,,
2021,03,06,00,59,00,3266.6,,,,,,,,,,,,,,
2021,03,06,01,00,00,2834.1,,,,,,,,,,,,,,
2021,03,06,01,01,00,1290.4,,,,,,,,,,,,,,
2021,03,06,01,02,00,-1489.6,,,,,,,,,,,,,,
2021,03,06,01,03,00,717.4,,,,,,,,,,,,,,
2021,03,06,01,04,00,1839.5,,,,,,,,,,,,,,
2021,03,06,01,05,00,1529.1,,,,,,,,,,,,,,
2021,03,06,01,06,00,1861.9,,,,,,,,,,,,,,
2021,03,06,01,07,00,2531.1,,,,,,,,,,,,,,
2021,03,06,01,08,00,3064.4,,,,,,,,,,,,,,
2021,03,06,01,09,00,3237.4,,,,,,,,,,,,,,
2021,03,06,01,10,00,2515.0,,,,,,,,,,,,,,
2021,03,06,01,11,00,2545.6,,,,,,,,,,,,,,
2021,03,06,01,12,00,2062.6,,,,,,,,,,,,,,
2021,03,06,01,13,00,1787.9,,,,,,,,,,,,,,
2021,03,06,01,14,00,451.8,,,,,,,,,,,,,,
2021,03,06,01,15,00,438.0,,,,,,,,,,,,,,
2021,03,06,01,16,00,1104.6,,,,,,,,,,,,,,
2021,03,06,01,17,00,-381.2,,,,,,,,,,,,,,
2021,03,06,01,18,00,-3621.9,,,,,,,,,,,,,,
2021,03,06,01,19,00,-4049.5,,,,,,,,,,,,,,
2021,03,06,01,20,00,-6944.1,,,,,,,,,,,,,,
2021,03,06,01,21,00,-5071.2,,,,,,,,,,,,,,
2021,03,06,01,22,00,-2275.1,,,,,,,,,,,,,,
2021,03,06,01,23,00,-2419.9,,,,,,,,,,,,,,
2021,03,06,01,24,00,-1479.2,,,,,,,,,,,,,,
2021,03,06,01,25,00,-1407.0,,,,,,,,,,,,,,
2021,03,06,01,26,00,-362.3,,,,,,,,,,,,,,
2021,03,06,01,27,00,-668.7,,,,,,,,,,,,,,
2021,03,06,01,28,00,-620.5,,,,,,,,,,,,,,
2021,03,06,01,29,00,-853.7,,,,,,,,,,,,,,
2021,03,06,01,30,00,-101.0,,,,,,,,,,,,,,
2021,03,06,01,31,00,765.9,,,,,,,,,,,,,,
2021,03,06,01,32,00,-227.9,,,,,,,,,,,,,,
2021,03,06,01,33,00,-1957.8,,,,,,,,,,,,,,
2021,03,06,01,34,00,-1703.9,,,,,,,,,,,,,,
2021,03,06,01,35,00,-2841.3,,,,,,,,,,,,,,
2021,03,06,01,36,00,-2880.9,,,,,,,,,,,,,,
2021,03,06,01,37,00,-3511.1,,,,,,,,,,,,,,
2021,03,06,01,38,00,-2529.8,,,,,,,,,,,,,,
2021,03,06,01,39,00,-2253.3,,,,,,,,,,,,,,
2021,03,06,01,40,00,-855.8,,,,,,,,,,,,,,
2021,03,06,01,41,00,-2931.4,,,,,,,,,,,,,,
2021,03,06,01,42,00,-1506.4,,,,,,,,,,,,,,
2021,03,06,01,43,00,6.4,,,,,,,,,,,,,,
2021,03,06,01,44,00,-2200.2,,,,,,,,,,,,,,
2021,03,06,01,45,00,-2812.4,,,,,,,,,,,,,,
2021,03,06,01,46,00,-3884.0,,,,,,,,,,,,,,
2021,03,06,01,47,00,-5268.9,,,,,,,,,,,,,,
2021,03,06,01,48,00,-3346.6,,,,,,,,,,,,,,
2021,03,06,01,49,00,-1685.8,,,,,,,,,,,,,,
2021,03,06,01,50,00,-1309.9,,,,,,,,,,,,,,
2021,03,06,01,51,00,-985.1,,,,,,,,,,,,,,
2021,03,06,01,52,00,-1328.6,,,,,,,,,,,,,,
2021,03,06,01,53,00,-1030.5,,,,,,,,,,,,,,
2021,03,06,01,54,00,-520.4,,,,,,,,,,,,,,
2021,03,06,01,55,00,-536.2,,,,,,,,,,,,,,
2021,03,06,01,56,00,-1090.0,,,,,,,,,,,,,,
2021,03,06,01,57,00,-982.8,,,,,,,,,,,,,,
2021,03,06,01,58,00,98.0,,,,,,,,,,,,,,
2021,03,06,01,59,00,-671.5,,,,,,,,,,,,,,
2021,03,06,02,00,00,-943.4,,,,,,,,,,,,,,
2021,03,06,02,01,00,-319.4,,,,,,,,,,,,,,
2021,03,06,02,02,00,1137.1,,,,,,,,,,,,,,
2021,03,06,02,03,00,1240.7,,,,,,,,,,,,,,
2021,03,06,02,04,00,933.4,,,,,,,,,,,,,,
2021,03,06,02,05,00,1322.9,,,,,,,,,,,,,,
2021,03,06,02,06,00,1210.9,,,,,,,,,,,,,,
2021,03,06,02,07,00,1209.9,,,,,,,,,,,,,,
2021,03,06,02,08,00,1172.7,,,,,,,,,,,,,,
2021,03,06,02,09,00,1901.7,,,,,,,,,,,,,,
2021,03,06,02,10,00,2847.3,,,,,,,,,,,,,,
2021,03,06,02,11,00,3722.9,,,,,,,,,,,,,,
2021,03,06,02,12,00,,,,,,,,,,,,,,,
2021,03,06,02,13,00,,,,,,,,,,,,,,,
2021,03,06,02,14,00,3658.4,,,,,,,,,,,,,,
2021,03,06,02,15,00,4110.6,,,,,,,,,,,,,,
2021,03,06,02,16,00,4370.5,,,,,,,,,,,,,,
2021,03,06,02,17,00,5564.7,,,,,,,,,,,,,,
2021,03,06,02,18,00,5905.5,,,,,,,,,,,,,,
2021,03,06,02,19,00,5787.5,,,,,,,,,,,,,,
2021,03,06,02,20,00,6262.2,,,,,,,,,,,,,,
2021,03,06,02,21,00,6191.4,,,,,,,,,,,,,,
2021,03,06,02,22,00,6065.9,,,,,,,,,,,,,,
2021,03,06,02,23,00,5902.9,,,,,,,,,,,,,,
2021,03,06,02,24,00,6047.3,,,,,,,,,,,,,,
2021,03,06,02,25,00,6224.8,,,,,,,,,,,,,,
2021,03,06,02,26,00,6085.2,,,,,,,,,,,,,,
2021,03,06,02,27,00,5439.0,,,,,,,,,,,,,,
2021,03,06,02,28,00,5191.3,,,,,,,,,,,,,,
2021,03,06,02,29,00,5256.7,,,,,,,,,,,,,,
2021,03,06,02,30,00,4382.6,,,,,,,,,,,,,,
2021,03,06,02,31,00,3401.0,,,,,,,,,,,,,,
2021,03,06,02,32,00,5430.4,,,,,,,,,,,,,,
2021,03,06,02,33,00,4670.2,,,,,,,,,,,,,,
2021,03,06,02,34,00,4543.5,,,,,,,,,,,,,,
2021,03,06,02,35,00,5275.7,,,,,,,,,,,,,,
2021,03,06,02,36,00,4650.5,,,,,,,,,,,,,,
2021,03,06,02,37,00,4490.1,,,,,,,,,,,,,,
2021,03,06,02,38,00,4443.8,,,,,,,,,,,,,,
2021,03,06,02,39,00,5577.6,,,,,,,,,,,,,,
2021,03,06,02,40,00,6882.7,,,,,,,,,,,,,,
2021,03,06,02,41,00,6175.0,,,,,,,,,,,,,,
2021,03,06,02,42,00,5869.3,,,,,,,,,,,,,,
2021,03,06,02,43,00,5868.9,,,,,,,,,,,,,,
2021,03,06,02,44,00,6427.4,,,,,,,,,,,,,,
2021,03,06,02,45,00,6152.0,,,,,,,,,,,,,,
2021,03,06,02,46,00,6477.3,,,,,,,,,,,,,,
2021,03,06,02,47,00,7353.4,,,,,,,,,,,,,,
2021,03,06,02,48,00,6562.1,,,,,,,,,,,,,,
2021,03,06,02,49,00,5615.0,,,,,,,,,,,,,,
2021,03,06,02,50,00,6097.0,,,,,,,,,,,,,,
2021,03,06,02,51,00,5114.2,,,,,,,,,,,,,,
2021,03,06,02,52,00,4850.6,,,,,,,,,,,,,,
2021,03,06,02,53,00,5210.2,,,,,,,,,,,,,,
2021,03,06,02,54,00,5930.2,,,,,,,,,,,,,,
2021,03,06,02,55,00,6737.9,,,,,,,,,,,,,,
2021,03,06,02,56,00,7686.2,,,,,,,,,,,,,,
2021,03,06,02,57,00,7713.4,,,,,,,,,,,,,,
2021,03,06,02,58,00,7455.9,,,,,,,,,,,,,,
2021,03,06,02,59,00,7348.1,,,,,,,,,,,,,,
2021,03,06,03,00,00,8812.5,,,,,,,,,,,,,,
2021,03,06,03,01,00,10155.3,,,,,,,,,,,,,,
2021,03,06,03,02,00,10479.1,,,,,,,,,,,,,,
2021,03,06,03,03,00,10105.8,,,,,,,,,,,,,,
2021,03,06,03,04,00,9437.6,,,,,,,,,,,,,,
2021,03,06,03,05,00,8911.1,,,,,,,,,,,,,,
2021,03,06,03,06,00,8346.2,,,,,,,,,,,,,,
2021,03,06,03,07,00,7708.1,,,,,,,,,,,,,,
2021,03,06,03,08,00,7614.2,,,,,,,,,,,,,,
2021,03,06,03,09,00,8219.1,,,,,,,,,,,,,,
2021,03,06,03,10,00,7722.1,,,,,,,,,,,,,,
2021,03,06,03,11,00,6986.5,,,,,,,,,,,,,,
2021,03,06,03,12,00,4666.5,,,,,,,,,,,,,,
2021,03,06,03,13,00,3902.8,,,,,,,,,,,,,,
2021,03,06,03,14,00,4702.7,,,,,,,,,,,,,,
2021,03,06,03,15,00,5939.0,,,,,,,,,,,,,,
2021,03,06,03,16,00,6510.2,,,,,,,,,,,,,,
2021,03,06,03,17,00,6581.9,,,,,,,,,,,,,,
2021,03,06,03,18,00,6404.2,,,,,,,,,,,,,,
2021,03,06,03,19,00,6697.6,,,,,,,,,,,,,,
2021,03,06,03,20,00,7240.2,,,,,,,,,,,,,,
2021,03,06,03,21,00,7263.9,,,,,,,,,,,,,,
2021,03,06,03,22,00,7323.6,,,,,,,,,,,,,,
2021,03,06,03,23,00,5208.3,,,,,,,,,,,,,,
2021,03,06,03,24,00,5224.3,,,,,,,,,,,,,,
2021,03,06,03,25,00,5178.4,,,,,,,,,,,,,,
2021,03,06,03,26,00,4712.7,,,,,,,,,,,,,,
2021,03,06,03,27,00,4795.5,,,,,,,,,,,,,,
2021,03,06,03,28,00,5243.2,,,,,,,,,,,,,,
2021,03,06,03,29,00,5213.5,,,,,,,,,,,,,,
2021,03,06,03,30,00,4212.1,,,,,,,,,,,,,,
2021,03,06,03,31,00,5473.0,,,,,,,,,,,,,,
2021,03,06,03,32,00,5211.2,,,,,,,,,,,,,,
2021,03,06,03,33,00,4744.8,,,,,,,,,,,,,,
2021,03,06,03,34,00,4860.1,,,,,,,,,,,,,,
2021,03,06,03,35,00,4535.8,,,,,,,,,,,,,,
2021,03,06,03,36,00,4496.9,,,,,,,,,,,,,,
2021,03,06,03,37,00,4955.5,,,,,,,,,,,,,,
2021,03,06,03,38,00,5140.6,,,,,,,,,,,,,,
2021,03,06,03,39,00,4654.5,,,,,,,,,,,,,,
2021,03,06,03,40,00,3983.5,,,,,,,,,,,,,,
2021,03,06,03,41,00,4219.3,,,,,,,,,,,,,,
2021,03,06,03,42,00,4312.4,,,,,,,,,,,,,,
2021,03,06,03,43,00,3912.7,,,,,,,,,,,,,,
2021,03,06,03,44,00,3943.9,,,,,,,,,,,,,,
2021,03,06,03,45,00,4023.8,,,,,,,,,,,,,,
2021,03,06,03,46,00,3797.7,,,,,,,,,,,,,,
2021,03,06,03,47,00,3938.5,,,,,,,,,,,,,,
2021,03,06,03,48,00,4047.9,,,,,,,,,,,,,,
2021,03,06,03,49,00,3988.0,,,,,,,,,,,,,,
2021,03,06,03,50,00,3890.4,,,,,,,,,,,,,,
2021,03,06,03,51,00,3942.8,,,,,,,,,,,,,,
2021,03,06,03,52,00,4219.2,,,,,,,,,,,,,,
2021,03,06,03,53,00,4193.3,,,,,,,,,,,,,,
2021,03,06,03,54,00,3360.0,,,,,,,,,,,,,,
2021,03,06,03,55,00,2703.3,,,,,,,,,,,,,,
2021,03,06,03,56,00,2436.9,,,,,,,,,,,,,,
2021,03,06,03,57,00,3069.8,,,,,,,,,,,,,,
2021,03,06,03,58,00,3051.1,,,,,,,,,,,,,,
2021,03,06,03,59,00,2585.1,,,,,,,,,,,,,,
2021,03,06,04,00,00,2653.9,,,,,,,,,,,,,,
2021,03,06,04,01,00,2799.1,,,,,,,,,,,,,,
2021,03,06,04,02,00,2900.4,,,,,,,,,,,,,,
2021,03,06,04,03,00,3430.2,,,,,,,,,,,,,,
2021,03,06,04,04,00,3610.2,,,,,,,,,,,,,,
2021,03,06,04,05,00,4929.8,,,,,,,,,,,,,,
2021,03,06,04,06,00,4541.6,,,,,,,,,,,,,,
2021,03,06,04,07,00,4180.0,,,,,,,,,,,,,,
2021,03,06,04,08,00,4222.6,,,,,,,,,,,,,,
2021,03,06,04,09,00,3405.3,,,,,,,,,,,,,,
2021,03,06,04,10,00,2655.9,,,,,,,,,,,,,,
2021,03,06,04,11,00,2255.6,,,,,,,,,,,,,,
2021,03,06,04,12,00,3099.3,,,,,,,,,,,,,,
2021,03,06,04,13,00,3701.3,,,,,,,,,,,,,,
2021,03,06,04,14,00,3401.5,,,,,,,,,,,,,,
2021,03,06,04,15,00,2885.2,,,,,,,,,,,,,,
2021,03,06,04,16,00,2188.9,,,,,,,,,,,,,,
2021,03,06,04,17,00,4734.9,,,,,,,,,,,,,,
2021,03,06,04,18,00,2753.0,,,,,,,,,,,,,,
2021,03,06,04,19,00,2798.8,,,,,,,,,,,,,,
2021,03,06,04,20,00,2438.1,,,,,,,,,,,,,,
2021,03,06,04,21,00,2681.7,,,,,,,,,,,,,,
2021,03,06,04,22,00,2476.0,,,,,,,,,,,,,,
2021,03,06,04,23,00,2302.2,,,,,,,,,,,,,,
2021,03,06,04,24,00,1922.2,,,,,,,,,,,,,,
2021,03,06,04,25,00,2721.7,,,,,,,,,,,,,,
2021,03,06,04,26,00,2607.9,,,,,,,,,,,,,,
2021,03,06,04,27,00,2529.3,,,,,,,,,,,,,,
2021,03,06,04,28,00,4444.9,,,,,,,,,,,,,,
2021,03,06,04,29,00,3367.2,,,,,,,,,,,,,,
2021,03,06,04,30,00,1295.4,,,,,,,,,,,,,,
2021,03,06,04,31,00,1128.3,,,,,,,,,,,,,,
2021,03,06,04,32,00,2053.9,,,,,,,,,,,,,,
2021,03,06,04,33,00,-281.5,,,,,,,,,,,,,,
2021,03,06,04,34,00,1604.8,,,,,,,,,,,,,,
2021,03,06,04,35,00,1694.7,,,,,,,,,,,,,,
2021,03,06,04,36,00,1817.0,,,,,,,,,,,,,,
2021,03,06,04,37,00,2824.1,,,,,,,,,,,,,,
2021,03,06,04,38,00,3450.9,,,,,,,,,,,,,,
2021,03,06,04,39,00,3220.1,,,,,,,,,,,,,,
2021,03,06,04,40,00,2508.1,,,,,,,,,,,,,,
2021,03,06,04,41,00,1348.2,,,,,,,,,,,,,,
2021,03,06,04,42,00,-493.6,,,,,,,,,,,,,,
2021,03,06,04,43,00,1400.3,,,,,,,,,,,,,,
2021,03,06,04,44,00,1744.9,,,,,,,,,,,,,,
2021,03,06,04,45,00,1372.3,,,,,,,,,,,,,,
2021,03,06,04,46,00,3611.8,,,,,,,,,,,,,,
2021,03,06,04,47,00,5441.3,,,,,,,,,,,,,,
2021,03,06,04,48,00,3233.3,,,,,,,,,,,,,,
2021,03,06,04,49,00,1256.5,,,,,,,,,,,,,,
2021,03,06,04,50,00,173.5,,,,,,,,,,,,,,
2021,03,06,04,51,00,972.1,,,,,,,,,,,,,,
2021,03,06,04,52,00,2045.3,,,,,,,,,,,,,,
2021,03,06,04,53,00,1724.3,,,,,,,,,,,,,,
2021,03,06,04,54,00,7657.8,,,,,,,,,,,,,,
2021,03,06,04,55,00,3812.4,,,,,,,,,,,,,,
2021,03,06,04,56,00,3616.6,,,,,,,,,,,,,,
2021,03,06,04,57,00,1047.8,,,,,,,,,,,,,,
2021,03,06,04,58,00,359.7,,,,,,,,,,,,,,
2021,03,06,04,59,00,1202.5,,,,,,,,,,,,,,
2021,03,06,05,00,00,442.6,,,,,,,,,,,,,,
2021,03,06,05,01,00,1421.8,,,,,,,,,,,,,,
2021,03,06,05,02,00,984.2,,,,,,,,,,,,,,
2021,03,06,05,03,00,1365.3,,,,,,,,,,,,,,
2021,03,06,05,04,00,2940.6,,,,,,,,,,,,,,
2021,03,06,05,05,00,2948.4,,,,,,,,,,,,,,
2021,03,06,05,06,00,1818.3,,,,,,,,,,,,,,
2021,03,06,05,07,00,1672.0,,,,,,,,,,,,,,
2021,03,06,05,08,00,1599.2,,,,,,,,,,,,,,
2021,03,06,05,09,00,2661.1,,,,,,,,,,,,,,
2021,03,06,05,10,00,2356.1,,,,,,,,,,,,,,
2021,03,06,05,11,00,2084.7,,,,,,,,,,,,,,
2021,03,06,05,12,00,1564.3,,,,,,,,,,,,,,
2021,03,06,05,13,00,622.2,,,,,,,,,,,,,,
2021,03,06,05,14,00,104.0,,,,,,,,,,,,,,
2021,03,06,05,15,00,1059.8,,,,,,,,,,,,,,
2021,03,06,05,16,00,1814.1,,,,,,,,,,,,,,
2021,03,06,05,17,00,2611.1,,,,,,,,,,,,,,
2021,03,06,05,18,00,1708.0,,,,,,,,,,,,,,
2021,03,06,05,19,00,1799.4,,,,,,,,,,,,,,
2021,03,06,05,20,00,2538.2,,,,,,,,,,,,,,
2021,03,06,05,21,00,3371.7,,,,,,,,,,,,,,
2021,03,06,05,22,00,3691.4,,,,,,,,,,,,,,
2021,03,06,05,23,00,4399.9,,,,,,,,,,,,,,
2021,03,06,05,24,00,4037.2,,,,,,,,,,,,,,
2021,03,06,05,25,00,3981.8,,,,,,,,,,,,,,
2021,03,06,05,26,00,3843.4,,,,,,,,,,,,,,
2021,03,06,05,27,00,3690.1,,,,,,,,,,,,,,
2021,03,06,05,28,00,4124.9,,,,,,,,,,,,,,
2021,03,06,05,29,00,3661.4,,,,,,,,,,,,,,
2021,03,06,05,30,00,2829.3,,,,,,,,,,,,,,
2021,03,06,05,31,00,2525.0,,,,,,,,,,,,,,
2021,03,06,05,32,00,2230.5,,,,,,,,,,,,,,
2021,03,06,05,33,00,2062.0,,,,,,,,,,,,,,
2021,03,06,05,34,00,2316.4,,,,,,,,,,,,,,
2021,03,06,05,35,00,3223.0,,,,,,,,,,,,,,
2021,03,06,05,36,00,3759.8,,,,,,,,,,,,,,
2021,03,06,05,37,00,3582.6,,,,,,,,,,,,,,
2021,03,06,05,38,00,3655.9,,,,,,,,,,,,,,
2021,03,06,05,39,00,3650.4,,,,,,,,,,,,,,
2021,03,06,05,40,00,3447.4,,,,,,,,,,,,,,
2021,03,06,05,41,00,3559.3,,,,,,,,,,,,,,
2021,03,06,05,42,00,3210.8,,,,,,,,,,,,,,
2021,03,06,05,43,00,2556.0,,,,,,,,,,,,,,
2021,03,06,05,44,00,3203.3,,,,,,,,,,,,,,
2021,03,06,05,45,00,3043.2,,,,,,,,,,,,,,
2021,03,06,05,46,00,2319.1,,,,,,,,,,,,,,
2021,03,06,05,47,00,2386.2,,,,,,,,,,,,,,
2021,03,06,05,48,00,2969.4,,,,,,,,,,,,,,
2021,03,06,05,49,00,2891.8,,,,,,,,,,,,,,
2021,03,06,05,50,00,2525.2,,,,,,,,,,,,,,
2021,03,06,05,51,00,2685.7,,,,,,,,,,,,,,
2021,03,06,05,52,00,2931.3,,,,,,,,,,,,,,
2021,03,06,05,53,00,2818.5,,,,,,,,,,,,,,
2021,03,06,05,54,00,2463.9,,,,,,,,,,,,,,
2021,03,06,05,55,00,2162.6,,,,,,,,,,,,,,
2021,03,06,05,56,00,2792.3,,,,,,,,,,,,,,
2021,03,06,05,57,00,4013.2,,,,,,,,,,,,,,
2021,03,06,05,58,00,4287.0,,,,,,,,,,,,,,
2021,03,06,05,59,00,3609.8,,,,,,,,,,,,,,
2021,03,06,06,00,00,4601.9,,,,,,,,,,,,,,
2021,03,06,06,01,00,5037.8,,,,,,,,,,,,,,
2021,03,06,06,02,00,5172.6,,,,,,,,,,,,,,
2021,03,06,06,03,00,5200.5,,,,,,,,,,,,,,
2021,03,06,06,04,00,5028.5,,,,,,,,,,,,,,
2021,03,06,06,05,00,4670.6,,,,,,,,,,,,,,
2021,03,06,06,06,00,4353.8,,,,,,,,,,,,,,
2021,03,06,06,07,00,4126.2,,,,,,,,,,,,,,
2021,03,06,06,08,00,3281.4,,,,,,,,,,,,,,
2021,03,06,06,09,00,3463.1,,,,,,,,,,,,,,
2021,03,06,06,10,00,3399.9,,,,,,,,,,,,,,
2021,03,06,06,11,00,3939.1,,,,,,,,,,,,,,
2021,03,06,06,12,00,4019.4,,,,,,,,,,,,,,
2021,03,06,06,13,00,4252.2,,,,,,,,,,,,,,
2021,03,06,06,14,00,4712.2,,,,,,,,,,,,,,
2021,03,06,06,15,00,4407.1,,,,,,,,,,,,,,
2021,03,06,06,16,00,4139.2,,,,,,,,,,,,,,
2021,03,06,06,17,00,3817.0,,,,,,,,,,,,,,
2021,03,06,06,18,00,3573.9,,,,,,,,,,,,,,
2021,03,06,06,19,00,4053.3,,,,,,,,,,,,,,
2021,03,06,06,20,00,4720.2,,,,,,,,,,,,,,
2021,03,06,06,21,00,5007.0,,,,,,,,,,,,,,
2021,03,06,06,22,00,4695.1,,,,,,,,,,,,,,
2021,03,06,06,23,00,4183.0,,,,,,,,,,,,,,
2021,03,06,06,24,00,3574.1,,,,,,,,,,,,,,
2021,03,06,06,25,00,3480.7,,,,,,,,,,,,,,
2021,03,06,06,26,00,4037.3,,,,,,,,,,,,,,
2021,03,06,06,27,00,5061.8,,,,,,,,,,,,,,
2021,03,06,06,28,00,4856.6,,,,,,,,,,,,,,
2021,03,06,06,29,00,5309.9,,,,,,,,,,,,,,
2021,03,06,06,30,00,5447.6,,,,,,,,,,,,,,
2021,03,06,06,31,00,5895.4,,,,,,,,,,,,,,
2021,03,06,06,32,00,5843.1,,,,,,,,,,,,,,
2021,03,06,06,33,00,5400.7,,,,,,,,,,,,,,
2021,03,06,06,34,00,5510.2,,,,,,,,,,,,,,
2021,03,06,06,35,00,5092.7,,,,,,,,,,,,,,
2021,03,06,06,36,00,4776.6,,,,,,,,,,,,,,
2021,03,06,06,37,00,4128.5,,,,,,,,,,,,,,
2021,03,06,06,38,00,4559.5,,,,,,,,,,,,,,
2021,03,06,06,39,00,4701.4,,,,,,,,,,,,,,
2021,03,06,06,40,00,4770.7,,,,,,,,,,,,,,
2021,03,06,06,41,00,4680.0,,,,,,,,,,,,,,
2021,03,06,06,42,00,4626.5,,,,,,,,,,,,,,
2021,03,06,06,43,00,4718.1,,,,,,,,,,,,,,
2021,03,06,06,44,00,5272.3,,,,,,,,,,,,,,
2021,03,06,06,45,00,5923.4,,,,,,,,,,,,,,
2021,03,06,06,46,00,5670.4,,,,,,,,,,,,,,
2021,03,06,06,47,00,5462.6,,,,,,,,,,,,,,
2021,03,06,06,48,00,5646.2,,,,,,,,,,,,,,
2021,03,06,06,49,00,5590.8,,,,,,,,,,,,,,
2021,03,06,06,50,00,5885.3,,,,,,,,,,,,,,
2021,03,06,06,51,00,6516.0,,,,,,,,,,,,,,
2021,03,06,06,52,00,6565.2,,,,,,,,,,,,,,
2021,03,06,06,53,00,5509.4,,,,,,,,,,,,,,
2021,03,06,06,54,00,5045.7,,,,,,,,,,,,,,
2021,03,06,06,55,00,4417.0,,,,,,,,,,,,,,
2021,03,06,06,56,00,4691.7,,,,,,,,,,,,,,
2021,03,06,06,57,00,5193.9,,,,,,,,,,,,,,
2021,03,06,06,58,00,5045.2,,,,,,,,,,,,,,
2021,03,06,06,59,00,5272.3,,,,,,,,,,,,,,
2021,03,06,07,00,00,5513.6,,,,,,,,,,,,,,
2021,03,06,07,01,00,5901.8,,,,,,,,,,,,,,
2021,03,06,07,02,00,5775.6,,,,,,,,,,,,,,
2021,03,06,07,03,00,5612.2,,,,,,,,,,,,,,
2021,03,06,07,04,00,5764.9,,,,,,,,,,,,,,
2021,03,06,07,05,00,5014.8,,,,,,,,,,,,,,
2021,03,06,07,06,00,4586.9,,,,,,,,,,,,,,
2021,03,06,07,07,00,4593.1,,,,,,,,,,,,,,
2021,03,06,07,08,00,3458.5,,,,,,,,,,,,,,
2021,03,06,07,09,00,4101.4,,,,,,,,,,,,,,
2021,03,06,07,10,00,3937.7,,,,,,,,,,,,,,
2021,03,06,07,11,00,2110.2,,,,,,,,,,,,,,
2021,03,06,07,12,00,3654.3,,,,,,,,,,,,,,
2021,03,06,07,13,00,4885.5,,,,,,,,,,,,,,
2021,03,06,07,14,00,5234.0,,,,,,,,,,,,,,
2021,03,06,07,15,00,5706.4,,,,,,,,,,,,,,
2021,03,06,07,16,00,6545.2,,,,,,,,,,,,,,
2021,03,06,07,17,00,,,,,,,,,,,,,,,
2021,03,06,07,18,00,,,,,,,,,,,,,,,
2021,03,06,07,19,00,4170.1,,,,,,,,,,,,,,
2021,03,06,07,20,00,3953.4,,,,,,,,,,,,,,
2021,03,06,07,21,00,3670.0,,,,,,,,,,,,,,
2021,03,06,07,22,00,3717.3,,,,,,,,,,,,,,
2021,03,06,07,23,00,3962.7,,,,,,,,,,,,,,
2021,03,06,07,24,00,4325.6,,,,,,,,,,,,,,
2021,03,06,07,25,00,4292.6,,,,,,,,,,,,,,
2021,03,06,07,26,00,4845.0,,,,,,,,,,,,,,
2021,03,06,07,27,00,5158.2,,,,,,,,,,,,,,
2021,03,06,07,28,00,5237.7,,,,,,,,,,,,,,
2021,03,06,07,29,00,6096.3,,,,,,,,,,,,,,
2021,03,06,07,30,00,6417.1,,,,,,,,,,,,,,
2021,03,06,07,31,00,5458.4,,,,,,,,,,,,,,
2021,03,06,07,32,00,4991.7,,,,,,,,,,,,,,
2021,03,06,07,33,00,4528.6,,,,,,,,,,,,,,
2021,03,06,07,34,00,4270.8,,,,,,,,,,,,,,
2021,03,06,07,35,00,4181.5,,,,,,,,,,,,,,
2021,03,06,07,36,00,3831.7,,,,,,,,,,,,,,
2021,03,06,07,37,00,3747.1,,,,,,,,,,,,,,
2021,03,06,07,38,00,3787.2,,,,,,,,,,,,,,
2021,03,06,07,39,00,3499.3,,,,,,,,,,,,,,
2021,03,06,07,40,00,3163.8,,,,,,,,,,,,,,
2021,03,06,07,41,00,3165.0,,,,,,,,,,,,,,
2021,03,06,07,42,00,2885.5,,,,,,,,,,,,,,
2021,03,06,07,43,00,2932.7,,,,,,,,,,,,,,
2021,03,06,07,44,00,3469.1,,,,,,,,,,,,,,
2021,03,06,07,45,00,3525.5,,,,,,,,,,,,,,
2021,03,06,07,46,00,3487.2,,,,,,,,,,,,,,
2021,03,06,07,47,00,4255.1,,,,,,,,,,,,,,
2021,03,06,07,48,00,4033.4,,,,,,,,,,,,,,
2021,03,06,07,49,00,3687.7,,,,,,,,,,,,,,
2021,03,06,07,50,00,3708.7,,,,,,,,,,,,,,
2021,03,06,07,51,00,3494.2,,,,,,,,,,,,,,
2021,03,06,07,52,00,2907.2,,,,,,,,,,,,,,
2021,03,06,07,53,00,2502.3,,,,,,,,,,,,,,
2021,03,06,07,54,00,2564.4,,,,,,,,,,,,,,
2021,03,06,07,55,00,3040.0,,,,,,,,,,,,,,
2021,03,06,07,56,00,3612.4,,,,,,,,,,,,,,
2021,03,06,07,57,00,3089.8,,,,,,,,,,,,,,
2021,03,06,07,58,00,3020.4,,,,,,,,,,,,,,
2021,03,06,07,59,00,2977.7,,,,,,,,,,,,,,
2021,03,06,08,00,00,2880.5,,,,,,,,,,,,,,
2021,03,06,08,01,00,2979.6,,,,,,,,,,,,,,
2021,03,06,08,02,00,2723.7,,,,,,,,,,,,,,
2021,03,06,08,03,00,2359.7,,,,,,,,,,,,,,
2021,03,06,08,04,00,2510.4,,,,,,,,,,,,,,
2021,03,06,08,05,00,2594.1,,,,,,,,,,,,,,
2021,03,06,08,06,00,2674.0,,,,,,,,,,,,,,
2021,03,06,08,07,00,2547.4,,,,,,,,,,,,,,
2021,03,06,08,08,00,2387.2,,,,,,,,,,,,,,
2021,03,06,08,09,00,2205.4,,,,,,,,,,,,,,
2021,03,06,08,10,00,2095.4,,,,,,,,,,,,,,
2021,03,06,08,11,00,2182.0,,,,,,,,,,,,,,
2021,03,06,08,12,00,2676.6,,,,,,,,,,,,,,
2021,03,06,08,13,00,2674.8,,,,,,,,,,,,,,
2021,03,06,08,14,00,2412.2,,,,,,,,,,,,,,
2021,03,06,08,15,00,2768.3,,,,,,,,,,,,,,
2021,03,06,08,16,00,2850.4,,,,,,,,,,,,,,
2021,03,06,08,17,00,2574.8,,,,,,,,,,,,,,
2021,03,06,08,18,00,2485.9,,,,,,,,,,,,,,
2021,03,06,08,19,00,2367.8,,,,,,,,,,,,,,
2021,03,06,08,20,00,2487.4,,,,,,,,,,,,,,
2021,03,06,08,21,00,2633.7,,,,,,,,,,,,,,
2021,03,06,08,22,00,2466.5,,,,,,,,,,,,,,
2021,03,06,08,23,00,2332.3,,,,,,,,,,,,,,
2021,03,06,08,24,00,2284.0,,,,,,,,,,,,,,
2021,03,06,08,25,00,2367.4,,,,,,,,,,,,,,
2021,03,06,08,26,00,2208.5,,,,,,,,,,,,,,
2021,03,06,08,27,00,2224.2,,,,,,,,,,,,,,
2021,03,06,08,28,00,2169.4,,,,,,,,,,,,,,
2021,03,06,08,29,00,1975.2,,,,,,,,,,,,,,
2021,03,06,08,30,00,2102.7,,,,,,,,,,,,,,
2021,03,06,08,31,00,1995.0,,,,,,,,,,,,,,
2021,03,06,08,32,00,1725.4,,,,,,,,,,,,,,
2021,03,06,08,33,00,1379.6,,,,,,,,,,,,,,
2021,03,06,08,34,00,1285.3,,,,,,,,,,,,,,
2021,03,06,08,35,00,1313.8,,,,,,,,,,,,,,
2021,03,06,08,36,00,1267.7,,,,,,,,,,,,,,
2021,03,06,08,37,00,1397.5,,,,,,,,,,,,,,
2021,03,06,08,38,00,1326.9,,,,,,,,,,,,,,
2021,03,06,08,39,00,1374.7,,,,,,,,,,,,,,
2021,03,06,08,40,00,1351.9,,,,,,,,,,,,,,
2021,03,06,08,41,00,1170.8,,,,,,,,,,,,,,
2021,03,06,08,42,00,1098.6,,,,,,,,,,,,,,
2021,03,06,08,43,00,1096.0,,,,,,,,,,,,,,
2021,03,06,08,44,00,1103.4,,,,,,,,,,,,,,
2021,03,06,08,45,00,992.9,,,,,,,,,,,,,,
2021,03,06,08,46,00,1018.6,,,,,,,,,,,,,,
2021,03,06,08,47,00,1248.9,,,,,,,,,,,,,,
2021,03,06,08,48,00,1184.6,,,,,,,,,,,,,,
2021,03,06,08,49,00,1011.2,,,,,,,,,,,,,,
2021,03,06,08,50,00,873.5,,,,,,,,,,,,,,
2021,03,06,08,51,00,893.5,,,,,,,,,,,,,,
2021,03,06,08,52,00,821.8,,,,,,,,,,,,,,
2021,03,06,08,53,00,725.9,,,,,,,,,,,,,,
2021,03,06,08,54,00,875.4,,,,,,,,,,,,,,
2021,03,06,08,55,00,774.1,,,,,,,,,,,,,,
2021,03,06,08,56,00,837.6,,,,,,,,,,,,,,
2021,03,06,08,57,00,820.6,,,,,,,,,,,,,,
2021,03,06,08,58,00,894.5,,,,,,,,,,,,,,
2021,03,06,08,59,00,877.3,,,,,,,,,,,,,,
2021,03,06,09,00,00,911.6,,,,,,,,,,,,,,
2021,03,06,09,01,00,969.0,,,,,,,,,,,,,,
2021,03,06,09,02,00,931.5,,,,,,,,,,,,,,
2021,03,06,09,03,00,832.0,,,,,,,,,,,,,,
2021,03,06,09,04,00,,,,,,,,,,,,,,,
2021,03,06,09,05,00,,,,,,,,,,,,,,,
2021,03,06,09,06,00,,,,,,,,,,,,,,,
2021,03,06,09,07,00,,,,,,,,,,,,,,,
2021,03,06,09,08,00,,,,,,,,,,,,,,,
2021,03,06,09,09,00,,,,,,,,,,,,,,,
2021,03,06,09,10,00,,,,,,,,,,,,,,,
2021,03,06,09,11,00,,,,,,,,,,,,,,,
2021,03,06,09,12,00,,,,,,,,,,,,,,,
2021,03,06,09,13,00,,,,,,,,,,,,,,,
2021,03,06,09,14,00,,,,,,,,,,,,,,,
2021,03,06,09,15,00,,,,,,,,,,,,,,,
2021,03,06,09,16,00,,,,,,,,,,,,,,,
2021,03,06,09,17,00,,,,,,,,,,,,,,,
2021,03,06,09,18,00,,,,,,,,,,,,,,,
2021,03,06,09,19,00,,,,,,,,,,,,,,,
2021,03,06,09,20,00,,,,,,,,,,,,,,,
2021,03,06,09,21,00,,,,,,,,,,,,,,,
2021,03,06,09,22,00,,,,,,,,,,,,,,,
2021,03,06,09,23,00,,,,,,,,,,,,,,,
2021,03,06,09,24,00,,,,,,,,,,,,,,,
2021,03,06,09,25,00,,,,,,,,,,,,,,,
2021,03,06,09,26,00,,,,,,,,,,,,,,,
2021,03,06,09,27,00,,,,,,,,,,,,,,,
2021,03,06,09,28,00,,,,,,,,,,,,,,,
2021,03,06,09,29,00,,,,,,,,,,,,,,,
2021,03,06,09,30,00,,,,,,,,,,,,,,,
2021,03,06,09,31,00,,,,,,,,,,,,,,,
2021,03,06,09,32,00,,,,,,,,,,,,,,,
2021,03,06,09,33,00,,,,,,,,,,,,,,,
2021,03,06,09,34,00,,,,,,,,,,,,,,,
2021,03,06,09,35,00,,,,,,,,,,,,,,,
2021,03,06,09,36,00,,,,,,,,,,,,,,,